TimeCST,TemperatureF,Dew PointF,Humidity,Sea Level PressureIn,VisibilityMPH,Wind Direction,Wind SpeedMPH,Gust SpeedMPH,PrecipitationIn,Events,Conditions,WindDirDegrees,DateUTC
12:53 AM,72.0,68.0,87,29.81,6.0,South,5.8,-,N/A,,Clear,170,2012-12-20 06:53:00
1:53 AM,70.0,66.9,90,29.82,5.0,South,4.6,-,N/A,,Clear,170,2012-12-20 07:53:00
2:53 AM,68.0,66.0,93,29.85,3.0,Calm,Calm,-,N/A,,Clear,0,2012-12-20 08:53:00
3:23 AM,69.8,68.0,94,29.92,5.0,NW,10.4,31.1,N/A,,Mostly Cloudy,320,2012-12-20 09:23:00
3:53 AM,72.0,54.0,53,29.95,10.0,North,26.5,36.8,N/A,,Mostly Cloudy,350,2012-12-20 09:53:00
4:37 AM,71.6,42.8,35,29.99,9.0,North,21.9,31.1,N/A,,Overcast,350,2012-12-20 10:37:00
4:53 AM,70.0,39.0,32,30.01,9.0,NNW,24.2,32.2,N/A,,Overcast,340,2012-12-20 10:53:00
5:53 AM,68.0,24.1,19,30.09,7.0,North,27.6,39.1,N/A,,Overcast,350,2012-12-20 11:53:00
6:53 AM,64.9,14.0,14,30.16,9.0,NNW,31.1,40.3,N/A,,Overcast,340,2012-12-20 12:53:00
7:28 AM,64.4,15.8,15,30.22,10.0,NNW,19.6,28.8,N/A,,Overcast,340,2012-12-20 13:28:00
7:50 AM,62.6,14.0,15,30.25,9.0,NNW,23.0,35.7,N/A,,Overcast,340,2012-12-20 13:50:00
7:53 AM,63.0,14.0,15,30.25,9.0,NNW,23.0,35.7,N/A,,Overcast,340,2012-12-20 13:53:00
8:53 AM,63.0,15.1,16,30.31,9.0,NNW,24.2,32.2,N/A,,Overcast,340,2012-12-20 14:53:00
9:53 AM,63.0,15.1,16,30.37,9.0,NNW,24.2,32.2,N/A,,Overcast,340,2012-12-20 15:53:00
10:18 AM,64.4,15.8,15,30.37,10.0,NNW,24.2,36.8,N/A,,Overcast,330,2012-12-20 16:18:00
10:41 AM,64.4,14.0,14,30.38,10.0,NNW,24.2,34.5,N/A,,Overcast,340,2012-12-20 16:41:00
10:53 AM,64.0,12.0,13,30.39,10.0,NNW,24.2,39.1,N/A,,Overcast,340,2012-12-20 16:53:00
11:46 AM,62.6,12.2,14,30.41,10.0,North,21.9,33.4,N/A,,Partly Cloudy,350,2012-12-20 17:46:00
11:53 AM,64.0,12.9,14,30.40,10.0,NW,26.5,34.5,N/A,,Clear,320,2012-12-20 17:53:00
12:53 PM,64.0,10.0,12,30.38,10.0,NNW,27.6,36.8,N/A,,Partly Cloudy,330,2012-12-20 18:53:00
1:53 PM,64.9,8.1,11,30.36,10.0,North,20.7,33.4,N/A,,Clear,350,2012-12-20 19:53:00
2:53 PM,64.0,10.0,12,30.36,10.0,NNW,24.2,32.2,N/A,,Clear,340,2012-12-20 20:53:00
3:53 PM,64.0,9.0,12,30.36,10.0,NNW,19.6,29.9,N/A,,Clear,330,2012-12-20 21:53:00
4:53 PM,62.1,9.0,12,30.38,10.0,NW,21.9,31.1,N/A,,Clear,320,2012-12-20 22:53:00
5:53 PM,59.0,8.1,13,30.40,10.0,NNW,12.7,-,N/A,,Clear,330,2012-12-20 23:53:00
6:53 PM,55.9,9.0,15,30.42,10.0,NNW,8.1,-,N/A,,Clear,330,2012-12-21 00:53:00
7:53 PM,55.0,10.0,17,30.45,10.0,NNW,8.1,-,N/A,,Clear,330,2012-12-21 01:53:00
8:53 PM,53.1,12.0,20,30.46,10.0,NW,6.9,-,N/A,,Clear,310,2012-12-21 02:53:00
9:53 PM,52.0,12.0,20,30.48,10.0,NW,8.1,-,N/A,,Clear,310,2012-12-21 03:53:00
10:53 PM,51.1,14.0,23,30.49,10.0,NW,6.9,-,N/A,,Clear,310,2012-12-21 04:53:00
11:53 PM,48.9,15.1,26,30.50,10.0,NW,6.9,-,N/A,,Clear,320,2012-12-21 05:53:00